AKDT,Max TemperatureF,Mean TemperatureF,Min TemperatureF,Max Dew PointF,MeanDew PointF,Min DewpointF,Max Humidity, Mean Humidity, Min Humidity, Max Sea Level PressureIn, Mean Sea Level PressureIn, Min Sea Level PressureIn, Max VisibilityMiles, Mean VisibilityMiles, Min VisibilityMiles, Max Wind SpeedMPH, Mean Wind SpeedMPH, Max Gust SpeedMPH,PrecipitationIn, CloudCover, Events, WindDirDegrees
2013-10-1,50,37,24,34,27,19,86,66,43,29.79,29.73,29.65,10,10,10,7,1,,0.00,3,,80
2013-10-2,48,42,35,39,37,30,93,81,66,29.81,29.78,29.74,10,10,9,7,2,,0.00,6,,14
2013-10-3,51,40,30,37,36,27,93,74,54,29.74,29.52,29.39,10,10,2,20,6,30,0.00,4,,38
2013-10-4,55,44,33,39,35,30,87,73,47,29.74,29.60,29.45,10,10,10,9,2,,0.00,2,,258
2013-10-5,48,38,28,37,32,25,93,81,62,29.77,29.74,29.69,10,10,2,8,2,,0.00,4,,265
2013-10-6,48,42,35,41,36,32,93,82,62,29.72,29.70,29.66,10,10,1,13,3,17,0.00,6,,185
2013-10-7,48,39,30,39,36,27,93,81,66,29.84,29.77,29.64,10,10,8,10,5,,0.01,5,,124
2013-10-8,48,44,39,45,40,34,93,86,76,29.63,29.22,29.06,10,9,2,17,4,22,0.67,7,,181
2013-10-9,48,44,39,36,30,23,81,58,40,29.71,29.48,29.09,10,10,10,20,12,31,0.00,1,,227
2013-10-10,41,36,30,37,32,27,93,82,65,29.71,29.68,29.65,10,10,8,8,4,,0.02,6,,83
2013-10-11,48,44,39,45,40,36,93,90,82,29.84,29.78,29.69,10,10,6,5,0,,0.00,8,,319
2013-10-12,51,45,39,43,38,36,93,77,58,29.81,29.71,29.55,10,10,9,20,5,30,0.00,7,,86
2013-10-13,48,44,39,43,39,36,93,81,62,29.66,29.52,29.44,10,9,3,18,8,26,0.41,7,,87
2013-10-14,48,42,35,43,38,34,93,85,71,30.04,29.87,29.67,10,10,8,6,1,,0.00,7,,104
2013-10-15,48,44,41,46,41,37,93,88,81,30.10,30.02,29.97,10,9,3,7,1,,0.03,8,,209
2013-10-16,48,44,41,45,42,39,93,89,76,30.23,30.16,30.10,10,10,7,9,2,,0.01,8,,294
2013-10-17,51,45,39,43,39,36,93,77,58,30.10,29.92,29.71,10,10,10,18,3,25,0.00,6,,87
2013-10-18,50,46,42,43,37,34,87,70,54,29.76,29.68,29.53,10,10,10,21,8,29,0.01,6,,98
2013-10-19,51,45,39,37,35,32,87,64,50,29.65,29.47,29.33,10,10,10,18,6,23,0.00,6,,135
2013-10-20,51,43,35,37,33,28,81,66,47,29.92,29.81,29.65,10,10,10,10,5,17,0.00,7,,143
2013-10-21,48,38,28,36,31,25,87,74,54,30.02,29.98,29.93,10,10,10,13,3,,0.00,4,,76
2013-10-22,44,37,30,36,33,27,93,79,61,30.17,30.11,30.00,10,10,5,7,4,,0.01,4,,136
2013-10-23,42,33,24,34,29,19,93,79,53,30.03,29.84,29.74,10,10,10,9,4,,0.00,4,,76
2013-10-24,44,35,26,36,29,21,93,74,61,29.80,29.69,29.58,10,10,10,18,5,28,0.00,6,,72
2013-10-25,48,37,26,34,28,21,93,76,50,30.16,29.90,29.69,10,10,10,7,2,,0.00,3,,81
2013-10-26,42,34,26,36,28,21,93,82,70,30.42,30.33,30.17,10,10,10,10,4,,0.00,0,,60
2013-10-27,44,40,35,39,36,28,93,86,71,30.25,29.94,29.55,10,10,5,14,4,21,0.37,4,,23
2013-10-28,50,46,41,45,41,37,93,85,76,29.54,29.35,29.23,10,9,2,17,5,28,0.85,2,,187
2013-10-29,48,42,35,37,35,30,87,72,58,29.55,29.47,29.29,10,10,10,16,8,21,0.00,1,,115
2013-10-30,48,44,39,36,34,32,81,69,58,29.28,29.10,29.04,10,10,7,15,9,25,0.00,5,,39
2013-10-31,44,40,35,39,36,32,93,86,81,29.61,29.37,29.14,10,10,5,8,2,,0.00,8,,205